Location: Unspecified
(48.2082°N, 0.0000°E)
Time: 08:30:34
(UTC+00:00)

S-56A Canister/Altair - Pass Details

Date: 15 August 2020
Orbit: 633 x 2499 km, 38.9° (Epoch: 22 September)

Event Time Altitude Azimuth Distance (km) Brightness Sun altitude
Exits shadow 03:40:22 - 187° (S) 2,822 10.0 -11.6°
Reaches altitude 10° 03:42:32 10° 168° (SSE) 2,445 9.9 -11.3°
Maximum altitude 03:45:17 14° 139° (SE) 2,396 10.1 -10.9°
Drops below altitude 10° 03:48:27 10° 111° (ESE) 2,914 11.0 -10.5°
Sets 03:53:21 0° 88° (E) 4,309 12.4 -9.8°
